FW0825 Weather Reports


time (UTC)temp
C
wind
direction
speed
KPH
gust
KPH
rain 1hr
cm
rain 24hr
cm
rain mn
cm
humidity
%
barometer
mb
20260506014838 11 324 3.2 8.0 0.00 0.00 0.00 54 1010.5
20260506014336 11 323 3.2 6.4 0.00 0.00 0.00 56 1010.1
20260506013836 11 309 3.2 6.4 0.00 0.00 0.00 52 1010.1
20260506013336 11 299 3.2 4.8 0.00 0.00 0.00 55 1010.0
20260506012836 11 297 3.2 4.8 0.00 0.00 0.00 56 1009.9
20260506012336 11 291 1.6 4.8 0.00 0.00 0.00 54 1009.8
20260506011837 11 292 3.2 4.8 0.00 0.00 0.00 53 1009.9
20260506011336 11 286 3.2 4.8 0.00 0.00 0.00 52 1009.8
20260506010836 11 310 3.2 6.4 0.00 0.00 0.00 52 1009.7
20260506010336 11 319 3.2 6.4 0.00 0.00 0.00 51 1009.7
20260506005836 11 300 3.2 6.4 0.00 0.00 0.00 50 1009.6
20260506005336 11 302 1.6 6.4 0.00 0.00 0.00 51 1009.6
20260506004835 12 303 1.6 4.8 0.00 0.00 0.00 50 1009.5
20260506004336 12 271 3.2 4.8 0.00 0.00 0.00 50 1009.5
20260506003836 12 271 3.2 4.8 0.00 0.00 0.00 52 1009.4
20260506003335 12 290 3.2 4.8 0.00 0.00 0.00 46 1009.5
20260506003309 12 291 3.2 6.4 0.00 0.00 0.00 51 1009.5
20260506002323 12 306 3.2 6.4 0.00 0.00 0.00 46 1009.4
20260506001823 12 298 4.8 11.3 0.00 0.00 0.00 49 1009.4
20260506001421 12 298 4.8 12.9 0.00 0.00 0.00 47 1009.3
20260506000324 12 292 6.4 11.3 0.00 0.00 0.00 45 1009.4
20260505235824 12 293 8.0 14.5 0.00 0.00 0.00 44 1009.3
20260505235548 12 294 8.0 14.5 0.00 0.00 0.00 46 1009.3
20260505234823 12 297 8.0 14.5 0.00 0.00 0.00 45 1009.3
20260505234324 12 334 8.0 14.5 0.00 0.00 0.00 46 1009.4
20260505233824 12 294 9.7 17.7 0.00 0.00 0.00 44 1009.4
20260505233542 12 311 11.3 20.9 0.00 0.00 0.00 45 1009.4
20260505232822 12 319 9.7 20.9 0.00 0.00 0.00 45 1009.5
20260505232322 12 332 11.3 19.3 0.00 0.00 0.00 45 1009.4
20260505231821 12 340 11.3 19.3 0.00 0.00 0.00 49 1009.5
20260505231321 12 302 9.7 19.3 0.00 0.00 0.00 47 1009.4
20260505230822 12 281 12.9 24.1 0.00 0.00 0.00 46 1009.5
20260505230543 12 325 12.9 24.1 0.00 0.00 0.00 46 1009.4
20260505225813 12 310 14.5 20.9 0.00 0.00 0.00 46 1009.7
20260505225307 13 333 12.9 20.9 0.00 0.00 0.00 46 1009.6
20260505225248 13 323 9.7 17.7 0.00 0.00 0.00 45 1009.6
20260505224255 13 284 9.7 24.1 0.00 0.00 0.00 43 1009.6
20260505224009 13 308 11.3 24.1 0.00 0.00 0.00 42 1009.5
20260505223243 13 312 12.9 20.9 0.00 0.00 0.00 45 1009.5
20260505222738 13 318 11.3 20.9 0.00 0.00 0.00 41 1009.5
20260505222230 13 301 12.9 22.5 0.00 0.00 0.00 44 1009.5
20260505221725 13 300 11.3 22.5 0.00 0.00 0.00 40 1009.5
20260505221218 13 292 9.7 17.7 0.00 0.00 0.00 43 1009.3
20260505220713 13 312 11.3 19.3 0.00 0.00 0.00 43 1009.5
20260505220207 13 269 11.3 20.9 0.00 0.00 0.00 44 1009.6
20260505215701 13 273 9.7 20.9 0.00 0.00 0.00 45 1009.5
20260505215155 13 276 8.0 17.7 0.00 0.00 0.00 46 1009.6
20260505214649 13 257 8.0 20.9 0.00 0.00 0.00 44 1009.6
20260505214143 13 300 11.3 22.5 0.00 0.00 0.00 47 1009.5
20260505213637 13 293 11.3 24.1 0.00 0.00 0.00 42 1009.6
20260505213131 12 255 14.5 24.1 0.00 0.00 0.00 41 1009.5
20260505212625 13 254 14.5 22.5 0.00 0.00 0.00 46 1009.7
20260505212119 13 277 14.5 22.5 0.00 0.00 0.00 43 1009.5
20260505211834 12 303 12.9 22.5 0.00 0.00 0.00 44 1009.6
20260505211106 12 319 14.5 24.1 0.00 0.00 0.00 43 1009.6
20260505210826 12 331 16.1 24.1 0.00 0.00 0.00 43 1009.6
20260505210055 12 316 14.5 25.7 0.00 0.00 0.00 44 1009.6
20260505205549 12 309 12.9 27.4 0.00 0.00 0.00 43 1009.6
20260505205043 12 299 11.3 27.4 0.00 0.00 0.00 41 1009.8
20260505204537 12 292 9.7 19.3 0.00 0.00 0.00 42 1009.7
20260505204030 12 333 11.3 20.9 0.00 0.00 0.00 42 1009.6
20260505203525 12 290 12.9 20.9 0.00 0.00 0.00 42 1009.7
20260505203019 12 252 14.5 20.9 0.00 0.00 0.00 42 1009.9
20260505202513 12 297 14.5 20.9 0.00 0.00 0.00 42 1010.0
20260505202006 12 288 14.5 25.7 0.00 0.00 0.00 40 1010.0
20260505201501 12 288 12.9 25.7 0.00 0.00 0.00 40 1009.9
20260505200955 12 259 14.5 22.5 0.00 0.00 0.00 39 1009.9
20260505200449 12 304 16.1 27.4 0.00 0.00 0.00 44 1009.9
20260505195947 12 297 16.1 27.4 0.00 0.00 0.00 43 1010.0
20260505195447 12 261 14.5 27.4 0.00 0.00 0.00 40 1010.0
20260505194947 12 304 14.5 24.1 0.00 0.00 0.00 42 1009.9
20260505194929 12 254 14.5 24.1 0.00 0.00 0.00 40 1010.1
20260505193948 12 258 11.3 19.3 0.00 0.00 0.00 43 1010.1
20260505193447 12 277 12.9 27.4 0.00 0.00 0.00 42 1010.0
20260505192947 12 245 16.1 30.6 0.00 0.00 0.00 41 1010.1
20260505192447 12 315 14.5 30.6 0.00 0.00 0.00 43 1010.1
20260505191946 12 275 14.5 25.7 0.00 0.00 0.00 39 1010.2
20260505191447 12 250 14.5 25.7 0.00 0.00 0.00 42 1010.3
20260505190946 12 275 14.5 25.7 0.00 0.00 0.00 45 1010.2
20260505190713 12 268 12.9 24.1 0.00 0.00 0.00 43 1010.1
20260505185947 12 261 14.5 30.6 0.00 0.00 0.00 41 1010.1
20260505185447 12 281 16.1 32.2 0.00 0.00 0.00 39 1010.1
20260505184947 12 246 12.9 32.2 0.00 0.00 0.00 38 1010.0
20260505184706 12 313 11.3 24.1 0.00 0.00 0.00 41 1010.1
20260505183947 12 319 12.9 19.3 0.00 0.00 0.00 46 1010.0
20260505183446 12 12 14.5 22.5 0.00 0.00 0.00 42 1010.1
20260505182947 12 275 16.1 24.1 0.00 0.00 0.00 46 1010.0
20260505182447 12 309 17.7 29.0 0.00 0.00 0.00 43 1010.0
20260505181947 12 335 17.7 29.0 0.00 0.00 0.00 44 1010.0
20260505181447 12 313 17.7 29.0 0.00 0.00 0.00 43 1010.1
20260505180947 11 280 16.1 29.0 0.00 0.00 0.00 41 1010.1
20260505180447 12 330 14.5 27.4 0.00 0.00 0.00 43 1010.0
20260505175947 12 279 14.5 27.4 0.00 0.00 0.00 42 1009.9
20260505175937 12 315 14.5 24.1 0.00 0.00 0.00 44 1009.8
20260505174947 11 325 14.5 25.7 0.00 0.00 0.00 43 1009.7
20260505174447 11 280 14.5 27.4 0.00 0.00 0.00 41 1009.7
20260505174205 11 293 14.5 29.0 0.00 0.00 0.00 39 1009.7
20260505173447 11 252 14.5 29.0 0.00 0.00 0.00 45 1009.7
20260505172947 11 249 14.5 25.7 0.00 0.00 0.00 43 1009.7
20260505172446 11 241 12.9 25.7 0.00 0.00 0.00 47 1009.7
20260505171946 11 290 14.5 29.0 0.00 0.00 0.00 48 1009.6
20260505171439 11 277 16.1 29.0 0.00 0.00 0.00 42 1009.7
20260505170933 11 313 14.5 22.5 0.00 0.00 0.00 46 1009.9
20260505170435 11 312 14.5 24.1 0.00 0.00 0.00 42 1009.9
20260505165936 11 319 12.9 24.1 0.00 0.00 0.00 41 1009.9
20260505165435 11 285 11.3 22.5 0.00 0.00 0.00 44 1009.9
20260505164935 11 296 16.1 27.4 0.00 0.00 0.00 45 1009.9
20260505164919 11 313 17.7 27.4 0.00 0.00 0.00 44 1009.8
20260505163934 11 331 14.5 22.5 0.00 0.00 0.00 45 1009.6
20260505163435 11 296 11.3 20.9 0.00 0.00 0.00 44 1009.6
20260505163158 11 244 11.3 19.3 0.00 0.00 0.00 48 1009.4
20260505162435 11 311 12.9 22.5 0.00 0.00 0.00 51 1009.6
20260505162158 11 293 14.5 29.0 0.00 0.00 0.00 46 1009.7
20260505161434 11 225 14.5 29.0 0.00 0.00 0.00 46 1009.7
20260505160934 11 293 14.5 32.2 0.00 0.00 0.00 48 1009.7
20260505160435 11 321 12.9 32.2 0.00 0.00 0.00 48 1009.8
20260505152905 10 255 11.3 20.9 0.00 0.00 0.00 49 1009.5
20260505152359 10 252 9.7 17.7 0.00 0.00 0.00 48 1009.6
20260505151853 10 307 11.3 22.5 0.00 0.00 0.00 50 1009.7
20260505151347 10 281 12.9 22.5 0.00 0.00 0.00 50 1009.6
20260505150841 10 257 12.9 19.3 0.00 0.00 0.00 50 1009.8
20260505150336 10 266 11.3 20.9 0.00 0.00 0.00 52 1009.8
20260505140224 9 302 11.3 17.7 0.00 0.00 0.00 56 1010.0
20260505124553 8 275 3.2 6.4 0.00 0.00 0.00 59 1009.8
20260505124047 8 265 3.2 6.4 0.00 0.00 0.00 59 1009.8
20260505123542 8 279 3.2 6.4 0.00 0.00 0.00 60 1009.8
20260505123302 8 280 3.2 6.4 0.00 0.00 0.00 58 1009.7
20260505122535 8 276 3.2 6.4 0.00 0.00 0.00 60 1009.8
20260505122036 8 287 3.2 8.0 0.00 0.00 0.00 59 1009.9
20260505121535 8 269 4.8 8.0 0.00 0.00 0.00 62 1010.0
20260505121257 8 282 4.8 9.7 0.00 0.00 0.00 60 1010.0
20260505120856 8 299 4.8 9.7 0.00 0.00 0.00 61 1009.5
20260505115756 8 302 4.8 9.7 0.00 0.00 0.00 62 1009.8
20260505115036 8 303 4.8 9.7 0.00 0.00 0.00 63 1009.5
20260505114535 8 280 6.4 12.9 0.00 0.00 0.00 61 1009.3
20260505114036 8 306 8.0 12.9 0.00 0.00 0.00 61 1009.8
20260505113537 8 315 8.0 12.9 0.00 0.00 0.00 59 1008.7
20260505113032 8 339 6.4 12.9 0.00 0.00 0.00 58 1008.9
20260505112532 8 333 4.8 14.5 0.00 0.00 0.00 59 1009.1
20260505112033 8 298 4.8 14.5 0.00 0.00 0.00 61 1008.5
20260505111531 8 355 4.8 12.9 0.00 0.00 0.00 61 1007.2
20260505111032 9 5 4.8 12.9 0.00 0.00 0.00 62 1007.6
20260505110755 9 319 4.8 9.7 0.00 0.00 0.00 62 1007.7
20260505102028 9 344 4.8 9.7 0.00 0.00 0.00 60 1007.4
20260505101747 9 323 4.8 9.7 0.00 0.00 0.00 61 1008.1
20260505101026 9 334 8.0 12.9 0.00 0.00 0.00 60 1007.6
20260505100527 9 313 6.4 14.5 0.00 0.00 0.00 61 1007.6
20260505100024 9 337 1.6 14.5 0.00 0.00 0.00 58 1007.6
20260505095523 9 56 0.0 3.2 0.00 0.00 0.00 58 1007.2
20260505095024 9 56 1.6 6.4 0.00 0.00 0.00 58 1006.9
20260505094521 9 313 1.6 9.7 0.00 0.00 0.00 59 1007.0
20260505094021 9 5 3.2 9.7 0.00 0.00 0.00 59 1007.2
20260505093749 9 348 3.2 12.9 0.00 0.00 0.00 59 1006.9
20260505093020 10 317 3.2 16.1 0.00 0.00 0.00 57 1007.1
20260505092514 10 355 3.2 16.1 0.00 0.00 0.00 59 1007.1
20260505092008 10 338 4.8 14.5 0.00 0.00 0.00 59 1007.2
20260505091502 10 313 6.4 19.3 0.00 0.00 0.00 59 1007.2
20260505090957 10 355 6.4 24.1 0.00 0.00 0.00 59 1007.2
20260505090450 10 340 8.0 24.1 0.00 0.00 0.00 59 1007.1
20260505085944 10 22 8.0 17.7 0.00 0.00 0.00 59 1006.9
20260505085439 10 343 4.8 14.5 0.00 0.00 0.00 60 1006.7
20260505084933 10 350 4.8 9.7 0.00 0.00 0.00 61 1006.7
20260505084426 10 322 6.4 9.7 0.00 0.00 0.00 58 1006.7
20260505083920 10 338 6.4 12.9 0.00 0.00 0.00 60 1006.6
20260505083415 10 322 6.4 12.9 0.00 0.00 0.00 58 1006.2
20260505082909 11 334 6.4 12.9 0.00 0.00 0.00 58 1006.2
20260505082402 11 344 6.4 14.5 0.00 0.00 0.00 59 1005.9
20260505081857 11 334 9.7 20.9 0.00 0.00 0.00 58 1005.8
20260505081352 11 338 9.7 20.9 0.00 0.00 0.00 57 1005.7
20260505080845 11 338 8.0 16.1 0.00 0.00 0.00 58 1005.5
20260505080338 11 355 9.7 17.7 0.00 0.00 0.00 58 1005.5
20260505080055 11 0 8.0 17.7 0.00 0.00 0.00 58 1005.2
20260505075326 11 332 6.4 19.3 0.00 0.00 0.00 57 1005.2
20260505074821 11 335 6.4 19.3 0.00 0.00 0.00 58 1005.1
20260505074314 11 329 8.0 17.7 0.00 0.00 0.00 56 1004.9
20260505073808 11 327 6.4 22.5 0.00 0.00 0.00 58 1004.9
20260505073302 12 304 6.4 22.5 0.00 0.00 0.00 55 1004.7
20260505072756 12 321 6.4 20.9 0.00 0.00 0.00 54 1004.5
20260505072250 12 344 6.4 20.9 0.00 0.00 0.00 58 1004.7
20260505071744 12 32 11.3 24.1 0.00 0.00 0.00 56 1004.6
20260505071502 12 328 12.9 24.1 0.00 0.00 0.00 56 1004.6
20260505070732 13 329 11.3 24.1 0.00 0.00 0.00 55 1004.3
20260505070707 13 345 12.9 24.1 0.00 0.00 0.00 56 1004.5
20260505065720 13 332 9.7 19.3 0.00 0.00 0.00 55 1004.4
20260505065214 13 299 6.4 9.7 0.00 0.00 0.00 54 1004.5
20260505064931 13 325 6.4 8.0 0.00 0.00 0.00 54 1004.4
20260505064202 13 315 6.4 9.7 0.00 0.00 0.00 53 1004.2
20260505063918 13 315 6.4 9.7 0.00 0.00 0.00 51 1004.0
20260505063151 13 312 6.4 9.7 0.00 0.00 0.00 51 1003.9
20260505063125 13 314 6.4 9.7 0.00 0.00 0.00 51 1004.1
20260505062406 13 313 6.4 12.9 0.00 0.00 0.00 52 1003.9
20260505061638 14 338 6.4 12.9 0.00 0.00 0.00 50 1003.9
20260505061137 14 313 8.0 11.3 0.00 0.00 0.00 49 1003.9
20260505060637 14 334 8.0 12.9 0.00 0.00 0.00 54 1003.9
20260505060137 14 311 8.0 14.5 0.00 0.00 0.00 47 1003.7
20260505055637 14 313 11.3 20.9 0.00 0.00 0.00 49 1003.7
20260505055622 15 321 12.9 20.9 0.00 0.00 0.00 48 1003.6
20260505054637 15 334 11.3 19.3 0.00 0.00 0.00 50 1003.7
20260505054358 15 327 11.3 24.1 0.00 0.00 0.00 48 1003.7
20260505054123 15 341 12.9 24.1 0.00 0.00 0.00 47 1003.7
20260505053137 15 314 11.3 20.9 0.00 0.00 0.00 46 1003.8
20260505052637 15 335 11.3 16.1 0.00 0.00 0.00 49 1003.7
20260505052137 15 329 8.0 16.1 0.00 0.00 0.00 48 1003.6
20260505051637 15 286 6.4 11.3 0.00 0.00 0.00 50 1003.5
20260505051137 15 296 6.4 11.3 0.00 0.00 0.00 48 1003.4
20260505050637 15 304 6.4 11.3 0.00 0.00 0.00 49 1003.1
20260505050131 15 297 6.4 12.9 0.00 0.00 0.00 48 1003.1
20260505041552 15 279 8.0 14.5 0.00 0.00 0.00 48 1002.8
20260505041052 16 288 6.4 14.5 0.00 0.00 0.00 49 1002.8
20260505040548 16 250 6.4 12.9 0.00 0.00 0.00 48 1002.7
20260505040048 16 279 6.4 12.9 0.00 0.00 0.00 49 1002.7
20260505035548 16 288 6.4 12.9 0.00 0.00 0.00 49 1002.6
20260505035047 16 277 9.7 16.1 0.00 0.00 0.00 48 1002.4
20260505034545 16 297 9.7 19.3 0.00 0.00 0.00 48 1002.3
20260505034046 17 302 8.0 19.3 0.00 0.00 0.00 49 1002.2
20260505034036 17 317 8.0 14.5 0.00 0.00 0.00 48 1002.3
20260505033045 17 290 9.7 16.1 0.00 0.00 0.00 46 1002.2
20260505032544 17 293 8.0 16.1 0.00 0.00 0.00 47 1002.0
20260505032044 18 283 8.0 14.5 0.00 0.00 0.00 46 1001.7
20260505031543 18 310 6.4 12.9 0.00 0.00 0.00 47 1001.7
20260505031305 18 291 6.4 17.7 0.00 0.00 0.00 46 1001.8
20260505030542 18 276 11.3 19.3 0.00 0.00 0.00 46 1002.0
20260505030042 18 283 12.9 19.3 0.00 0.00 0.00 44 1002.0
20260505025542 19 312 12.9 19.3 0.00 0.00 0.00 43 1002.0
20260505025314 19 317 14.5 22.5 0.00 0.00 0.00 45 1001.9
20260505024543 19 317 16.1 27.4 0.00 0.00 0.00 42 1001.6
20260505024044 20 303 16.1 27.4 0.00 0.00 0.00 42 1001.5
20260505024033 20 321 14.5 24.1 0.00 0.00 0.00 46 1001.3
20260505023042 20 346 12.9 24.1 0.00 0.00 0.00 46 1001.1
20260505022541 20 311 11.3 19.3 0.00 0.00 0.00 45 1000.9
20260505022042 20 319 11.3 17.7 0.00 0.00 0.00 45 1000.9
20260505021542 20 309 12.9 22.5 0.00 0.00 0.00 44 1000.9
20260505021041 21 315 16.1 30.6 0.00 0.00 0.00 43 1000.9
20260505020541 21 282 19.3 32.2 0.00 0.00 0.00 43 1000.9
20260505020040 21 336 16.1 32.2 0.00 0.00 0.00 46 1000.8
20260505015541 21 280 12.9 32.2 0.00 0.00 0.00 52 1000.5